Other Public Products
Issued by NWS Grand Forks, ND

Home | Current Version | Previous Version | Text Only | Print | Product List | Glossary Off
Versions: 1 2 3 4 5 6 7 8 9 10 11 12 13 14 15 16 17 18 19 20 21 22 23 24 25 26 27 28 29 30 31 32 33 34 35 36 37 38 39 40 41 42 43 44 45 46 47 48 49 50

236
FPUS83 KFGF 220710
OPUFGF
PRAIRIE TO PINES WEATHER ROUNDUP
NATIONAL WEATHER SERVICE EASTERN NORTH DAKOTA/GRAND FORKS ND
200 AM CDT TUE AUG 22 2017

 **SATELLITE DATA USED TO AUGMENT SKY COVER AT AUTOMATED STATIONS**
 *****  WEATHER ACROSS EASTERN NORTH DAKOTA  *****

CITY           SKY/WX    TMP DP  RH WIND       PRES   REMARKS
GRAND FORKS    FAIR      51  49  92 W7        29.99S
GRAND FORKS AF FAIR      52  46  81 NW8       30.00S
GRAND CITY NWS NOT AVBL
BUXTON         NOT AVBL
DEVILS LAKE    FAIR      54  46  74 NW10      30.06S
FARGO          FAIR      55  53  93 NW7       30.01R
WAHPETON ARPT  FAIR      52  48  87 NW7       30.03R
$$

 *****  WEATHER ACROSS CENTRAL AND WESTERN NORTH DAKOTA  *****

CITY           SKY/WX    TMP DP  RH WIND       PRES   REMARKS
JAMESTOWN      FAIR      52  46  80 W7        30.07S
BISMARCK       FAIR      51  46  83 W3        30.14S
MINOT          FAIR      52  42  69 SW9       30.12S
MINOT AFB      FAIR      47  40  75 W8        30.10S
GARRISON         N/A     47  41  80 NW8       30.13S
WILLISTON      FAIR      42  36  79 CALM      30.18R
DICKINSON      FAIR      49  37  63 NW5       30.17S
HETTINGER      FAIR      46  39  76 CALM      30.20S
$$

 *****  OTHER OBSERVATIONS NORTHEAST NORTH DAKOTA  *****

CITY           SKY/WX    TMP DP  RH WIND       PRES   REMARKS
WALHALLA       FAIR      55  55 100 W10       29.99S
LANGDON        FAIR      48  48 100 W9        30.04R
CAVALIER       FAIR      54  46  76 W9        29.98S
GRAFTON        FAIR      54  48  82 W9        30.01S
CANDO          FAIR      50  50 100 W9        30.08S
FORT TOTTEN      N/A     61  47  60 NW5       29.95S
ROLLA          FAIR      50  43  76 W9        30.08R
RUGBY          FAIR      46  45  93 W6        30.09R
 ***** THE ABOVE OBSERVATIONS ARE NON NWS ARE NOT QUALITY
        CONTROLLED AND MAY MIS-REPORT RAIN FOR SNOW...
$$

 *****  OTHER OBSERVATIONS SOUTHEAST NORTH DAKOTA *****

CITY           SKY/WX    TMP DP  RH WIND       PRES   REMARKS
COOPERSTOWN    FAIR      50  48  93 W9        30.05S
VALLEY CITY      N/A     52  52 100 W10       30.07S
OAKES          NOT AVBL
GWINNER        SUNNY     57  50  77 NW8       30.05S
SHEYENNE NWR     N/A     54  51  90 NW6       29.95S
BUFFALO        NOT AVBL
WYNDMERE       NOT AVBL
 ***** THE ABOVE OBSERVATIONS ARE NON NWS ARE NOT QUALITY
       CONTROLLED AND MAY MIS-REPORT RAIN FOR SNOW...
$$

  *****  WEATHER ACROSS NORTHERN MINNESOTA  *****

CITY           SKY/WX    TMP DP  RH WIND       PRES   REMARKS
FLAG ISLAND      N/A     55  50  82 W5        29.90S
WARROAD        FAIR      48  45  87 W3        29.94S
ROSEAU         FAIR      52  46  82 W7        29.94S
HALLOCK        FAIR      48  46  93 W5        29.97S
THF RVR FALLS  FAIR      50  49  96 W8        30.00R
HALSTAD        NOT AVBL
FOSSTON        FAIR      50  50 100 W5        29.99S
BAUDETTE       FAIR      51  50  96 W8        29.91S
WASKISH        FAIR      55  54  94 NW10      29.93S
CROOKSTON      FAIR      48  48 100 W3        30.00S
$$
  *****  WEATHER ACROSS CENTRAL AND WEST MINNESOTA  *****

CITY           SKY/WX    TMP DP  RH WIND       PRES   REMARKS
BEMIDJI        FAIR      52  50  93 W8        29.96R
PARK RAPIDS    FAIR      55  52  89 NW9       29.96R
WADENA         FAIR      55  52  88 NW8       29.96S
DETROIT LAKES  FAIR      54  52  94 NW6       30.00S
MOORHEAD       FAIR      54  52  94 NW6       30.01S
FERGUS FALLS   FAIR      55  55 100 NW7       30.01R
ELBOW LAKE     FAIR      55  54  94 W8        30.00S
MORRIS MN      FAIR      57  54  88 NW12      29.99S
STAPLES        FAIR      55  54  94 NW9       29.95R
WHEATON        FAIR      57  52  82 W8        30.04S
$$
  *****  WEATHER ELSEWHERE ACROSS MINNESOTA  *****

CITY           SKY/WX    TMP DP  RH WIND       PRES   REMARKS
DULUTH         FAIR      55  55 100 NW6       29.85R
INTRNTL FALLS  FAIR      50  49  96 CALM      29.88F FOG
ELY            MOCLDY    52  52 100 CALM      29.85R
CLOQUET        FAIR      55  54  94 NW6       29.87R
BRAINERD       FAIR      60  56  86 NW12      29.92R
HIBBING        MOCLDY    53  53 100 W3        29.87S
ALEXANDRIA     FAIR      60  54  80 N10       29.98R
SAINT CLOUD    FAIR      60  59  96 NW9       29.91R
MINNEAPOLIS    FAIR      66  61  84 NW12      29.89R
$$

  *****  WEATHER ACROSS SOUTH DAKOTA  *****

CITY           SKY/WX    TMP DP  RH WIND       PRES   REMARKS
SIOUX FALLS    FAIR      62  59  90 N12       30.04R
BROOKINGS      FAIR      58  54  86 N10       30.05R
WATERTOWN      FAIR      58  53  84 NW8       30.05S
HURON          FAIR      51  50  96 W7        30.09R
SISSETON         N/A     57  52  83 NW9       30.03S
ABERDEEN       FAIR      54  47  77 NW9       30.08S
MITCHELL       FAIR      59  53  80 N9        30.09R
PIERRE         FAIR      58  46  64 N8        30.13R
MOBRIDGE       FAIR      54  47  77 N7        30.12R
RAPID CITY     FAIR      53  42  66 NW7       30.22S
$$

  *****  SOME WEATHER IN NEARBY STATES *****

CITY           SKY/WX    TMP DP  RH WIND       PRES   REMARKS
GLASGOW MT     NOT AVBL
GREAT FALLS MT FAIR      60  34  37 E8        30.16S
CHEYENNE WY    FAIR      57  44  62 SE6       30.34S
SCOTTSBLUFF NE FAIR      56  49  77 NE5       30.25S
OMAHA NE       FAIR      66  63  90 CALM      30.01S
DES MOINES IA  CLOUDY    67  65  93 N9        29.97R
DAVENPORT IA   FAIR      69  66  90 W13       29.92R
CHICAGO IL     CLOUDY    74  69  85 SW8       29.83S
EAU CLAIRE WI  CLOUDY    66  63  90 SW8       29.82F
LA CROSSE WI   MOCLDY    69  64  84 W8        29.86F
$$

  *****  SOME NATIONAL WEATHER *****

CITY           SKY/WX    TMP DP  RH WIND       PRES   REMARKS
LA GUARDIA NY  FAIR      77  72  84 S8        30.05F
RALEIGH NC     FAIR      76  73  91 SW6       30.15F
ATLANTA GA     FAIR      75  71  87 S3        30.15F
NEW ORLEANS LA MOCLDY    78  76  93 CALM      30.06F
OKLAHOMA CITY  FAIR      76  70  82 S10       30.04S
ALBUQUERQUE NM MOCLDY    70  54  56 N14       30.27R
SALT LAKE CITY FAIR      76  44  32 SE8       30.13S
LOS ANGELES CA FAIR      67  63  87 W9        29.99S
BOISE ID       FAIR      67  40  37 SE7       30.06R
SEATTLE WA     FAIR      71  53  52 NE9       30.00F
$$

*** WEATHER ACROSS MANITOBA...SASKATCHEWAN AND ONTARIO ***
                ***ONTARIO***

CITY           SKY/WX    TMP DP  RH WIND       PRES   REMARKS
GERALDTON      NOT AVBL
THUNDER BAY    CLOUDY    57  55  94 SW3       29.79S
SIOUX LOOKOUT  PTCLDY    52  52 100 W5        29.81F
TORONTO        MOCLDY    72  66  83 SE5       29.89F
BIG TROUT LK   CLOUDY    54  50  87 N7        29.73F
PICKLE LAKE    NOT AVBL
DRYDEN         MOCLDY    52  50  93 W7        29.84F
KENORA         PTCLDY    52  48  87 W6        29.90R
$$
                *** MANITOBA***

CITY           SKY/WX    TMP DP  RH WIND       PRES   REMARKS
BRANDON        PTCLDY    45  41  87 W9        30.05S
DAUPHIN        PTCLDY    50  45  81 W10       30.01S
ISLAND LAKE    LGT RAIN  54  52  94 W9        29.82R
PILOT MOUND      N/A     46  41  81 W5          N/A
THE PAS        PTCLDY    61  48  63 NW9       29.98R
THOMPSON       DRIZZLE   52  50  93 N6        29.95R
WINNIPEG       MOCLDY    52  50  93 W8        29.95R
LYNN LAKE      CLOUDY    54  52  94 MISG      30.00R
CHURCHILL      CLOUDY    48  43  81 NE12      30.00R
GILLAM         LGT RAIN  50  48  93 NE18G25   29.91R
$$
                ***SASKATCHEWAN***

CITY           SKY/WX    TMP DP  RH WIND       PRES   REMARKS
ESTEVAN        CLEAR     45  37  76 W7        30.14S
KINDERSLEY     PTCLDY    50  39  66 S6        30.12R
LLOYDMINSTER   CLOUDY    57  48  72 S6        30.08S
PRINCE ALBERT  CLEAR     45  39  81 W5        30.10R
REGINA         CLEAR     43  34  70 SW6       30.14S
YORKTON        CLEAR     50  43  76 W12       30.08S



USA.gov is the U.S. government's official web portal to all federal, state and local government web resources and services.